User: anonymous   Login
Location: Unspecified
(0.0000°N, 0.0000°E)
Time: 14:06:59
(UTC+00:00)
Language:

DX 1 - Orbit

View from above orbital plane
View from above orbital plane
View from above satellite
View from above satellite

Ground track
Ground track

The orbit data is extracted from the following two-line orbital elements,

1 40071U 14037C   18112.21303467  .00000119  00000-0  22717-4 0  9990
2 40071  98.3652 241.1056 0009319 133.9853 226.2121 14.81144902204714
Epoch (UTC): 22 April 2018 05:06:46
Eccentricity: 0.0009319
inclination: 98.3652°
perigee height: 619 km
apogee height: 632 km
right ascension of ascending node: 241.1056°
argument of perigee: 133.9853°
revolutions per day: 14.81144902
mean anomaly at epoch: 226.2121°
orbit number at epoch: 20471

The dashed part of the orbit path shows where the satellite is in the earth's shadow,  

DLR